DW3256 Weather Reports


time (UTC)temp
C
wind
direction
speed
KPH
gust
KPH
rain 1hr
cm
rain 24hr
cm
rain mn
cm
humidity
%
barometer
mb
20260508063018 10 162 3.2 16.1 0.00 0.05 0.00 61 1014.8
20260508062909 10 113 3.2 16.1 0.00 0.05 0.00 58 1014.7
20260508062014 10 218 3.2 11.3 0.00 0.05 0.00 61 1014.7
20260508061516 10 260 1.6 11.3 0.00 0.05 0.00 61 1014.8
20260508061014 10 270 1.6 9.7 0.00 0.05 0.00 65 1014.8
20260508060514 10 221 1.6 3.2 0.00 0.05 0.00 65 1014.8
20260508060012 10 222 1.6 4.8 0.00 0.05 0.00 64 1014.8
20260508055513 10 206 1.6 6.4 0.00 0.05 0.00 63 1014.7
20260508055013 10 202 1.6 6.4 0.00 0.05 0.00 60 1014.6
20260508054514 10 195 1.6 6.4 0.00 0.05 0.00 67 1014.6
20260508054014 10 143 1.6 6.4 0.00 0.05 0.00 63 1014.4
20260508053843 10 196 0.0 3.2 0.00 0.05 0.00 66 1014.4
20260508053013 10 355 1.6 3.2 0.00 0.05 0.00 64 1014.2
20260508052829 10 355 0.0 3.2 0.00 0.05 0.00 64 1014.2
20260508052016 10 24 0.0 3.2 0.00 0.05 0.00 66 1014.2
20260508051517 10 24 0.0 3.2 0.00 0.05 0.00 64 1014.1
20260508051012 10 24 0.0 3.2 0.00 0.05 0.00 65 1014.1
20260508050511 10 24 0.0 1.6 0.00 0.05 0.00 66 1014.0
20260508050014 10 24 0.0 3.2 0.00 0.05 0.00 66 1013.9
20260508045505 10 24 0.0 3.2 0.00 0.05 0.00 64 1013.9
20260508045006 10 24 1.6 4.8 0.00 0.05 0.00 66 1014.0
20260508044823 10 24 1.6 4.8 0.00 0.05 0.00 65 1014.0
20260508044311 10 19 0.0 3.2 0.00 0.05 0.00 65 1013.9
20260508043507 11 19 1.6 3.2 0.00 0.05 0.00 66 1014.0
20260508043007 11 19 1.6 3.2 0.00 0.05 0.00 66 1014.0
20260508042504 11 19 1.6 3.2 0.00 0.05 0.00 66 1013.9
20260508042003 11 19 1.6 3.2 0.00 0.05 0.00 66 1013.8
20260508041901 11 19 1.6 4.8 0.00 0.05 0.00 66 1013.8
20260508041003 11 19 1.6 4.8 0.00 0.05 0.00 66 1013.7
20260508040501 11 19 1.6 3.2 0.00 0.05 0.00 66 1013.6
20260508040004 11 19 1.6 3.2 0.00 0.05 0.00 66 1013.5
20260508035502 11 24 1.6 4.8 0.00 0.05 0.05 65 1013.6
20260508034957 11 24 1.6 4.8 0.00 0.05 0.05 66 1013.5
20260508034821 11 29 1.6 4.8 0.00 0.05 0.05 64 1013.5
20260508033948 11 9 1.6 4.8 0.00 0.05 0.05 64 1013.5
20260508033439 11 24 1.6 4.8 0.00 0.05 0.05 65 1013.6
20260508033308 11 12 1.6 3.2 0.00 0.05 0.05 65 1013.5
20260508032430 11 12 1.6 3.2 0.00 0.05 0.05 64 1013.3
20260508032306 11 12 1.6 3.2 0.00 0.05 0.05 63 1013.2
20260508031431 11 12 0.0 3.2 0.00 0.05 0.05 64 1013.2
20260508030927 11 259 0.0 3.2 0.00 0.05 0.05 63 1013.1
20260508030428 11 196 0.0 3.2 0.00 0.05 0.05 64 1013.1
20260508025927 12 196 0.0 3.2 0.00 0.05 0.05 62 1013.1
20260508025808 12 186 0.0 1.6 0.00 0.05 0.05 65 1013.0
20260508024928 12 185 0.0 1.6 0.00 0.05 0.05 61 1013.0
20260508024430 12 185 0.0 1.6 0.00 0.05 0.05 64 1012.9
20260508024326 12 180 0.0 3.2 0.00 0.05 0.05 64 1012.9
20260508023423 12 172 0.0 4.8 0.00 0.05 0.05 64 1012.8
20260508022923 12 166 0.0 3.2 0.00 0.05 0.05 62 1012.7
20260508022752 13 85 1.6 3.2 0.00 0.05 0.05 58 1012.6
20260508021929 13 43 1.6 9.7 0.00 0.05 0.05 57 1012.6
20260508021430 13 40 1.6 9.7 0.00 0.05 0.05 57 1012.5
20260508020920 13 273 1.6 3.2 0.00 0.05 0.05 59 1012.4
20260508020811 13 272 1.6 4.8 0.00 0.05 0.05 57 1012.3
20260508020115 13 261 1.6 9.7 0.00 0.05 0.05 55 1012.2
20260508020030 13 316 1.6 9.7 0.00 0.05 0.05 58 1012.3
20260508014923 13 29 1.6 3.2 0.00 0.05 0.05 57 1012.2
20260508014420 14 326 1.6 4.8 0.00 0.05 0.05 55 1012.1
20260508013921 14 291 3.2 6.4 0.00 0.05 0.05 54 1012.1
20260508013421 14 264 3.2 8.0 0.00 0.05 0.05 54 1012.0
20260508012921 14 288 4.8 11.3 0.00 0.05 0.05 55 1011.9
20260508012416 14 268 4.8 11.3 0.00 0.05 0.05 54 1011.8
20260508011919 14 275 3.2 12.9 0.00 0.05 0.05 60 1011.8
20260508011416 13 234 1.6 12.9 0.00 0.05 0.05 57 1011.7
20260508010916 14 239 1.6 4.8 0.00 0.05 0.05 57 1011.6
20260508010422 14 146 0.0 4.8 0.00 0.05 0.05 59 1011.5
20260508005921 14 164 1.6 6.4 0.00 0.05 0.05 57 1011.6
20260508005742 15 282 3.2 8.0 0.00 0.05 0.05 58 1011.4
20260508004917 15 266 4.8 8.0 0.00 0.05 0.05 55 1011.4
20260508004416 15 288 4.8 8.0 0.00 0.05 0.05 54 1011.3
20260508004316 14 241 3.2 8.0 0.00 0.05 0.05 55 1011.2
20260508003417 14 162 3.2 8.0 0.00 0.05 0.05 56 1011.2
20260508002917 14 290 1.6 6.4 0.00 0.05 0.05 56 1011.2
20260508002413 15 282 1.6 6.4 0.00 0.05 0.05 56 1011.2
20260508002240 15 281 1.6 6.4 0.00 0.05 0.05 57 1011.1
20260508001740 15 279 1.6 6.4 0.00 0.05 0.05 56 1011.1
20260508000915 15 269 3.2 9.7 0.00 0.05 0.05 55 1011.1
20260508000413 15 242 4.8 11.3 0.00 0.05 0.05 55 1010.9
20260507235911 15 214 4.8 12.9 0.00 0.05 0.05 55 1010.9
20260507235411 15 272 6.4 12.9 0.00 0.05 0.05 53 1010.8
20260507234910 15 277 6.4 14.5 0.00 0.05 0.05 53 1010.8
20260507234407 15 302 8.0 17.7 0.00 0.05 0.05 53 1010.7
20260507233905 15 299 6.4 17.7 0.00 0.05 0.05 54 1010.7
20260507233406 15 277 3.2 11.3 0.00 0.05 0.05 53 1010.6
20260507232904 15 143 4.8 14.5 0.00 0.05 0.05 53 1010.5
20260507232410 15 272 6.4 16.1 0.00 0.05 0.05 54 1010.5
20260507232205 16 241 6.4 16.1 0.00 0.05 0.05 53 1010.4
20260507231401 16 252 6.4 12.9 0.00 0.05 0.05 53 1010.3
20260507230852 16 278 4.8 22.5 0.00 0.05 0.05 54 1010.3
20260507230351 16 316 3.2 22.5 0.00 0.05 0.05 54 1010.3
20260507225843 16 301 3.2 9.7 0.00 0.05 0.05 57 1010.3
20260507225343 16 333 1.6 11.3 0.00 0.05 0.05 61 1010.0
20260507224845 16 81 3.2 11.3 0.00 0.05 0.05 59 1010.0
20260507224343 16 284 4.8 11.3 0.00 0.05 0.05 57 1009.9
20260507223839 16 296 6.4 11.3 0.00 0.05 0.05 57 1009.9
20260507223341 16 295 4.8 9.7 0.00 0.05 0.05 57 1009.9
20260507222842 16 280 6.4 16.1 0.00 0.05 0.05 57 1009.8
20260507222340 16 287 6.4 16.1 0.00 0.05 0.05 56 1009.9
20260507221839 16 291 4.8 11.3 0.00 0.05 0.05 58 1009.9
20260507221338 16 300 4.8 11.3 0.00 0.05 0.05 58 1009.8
20260507221159 16 267 4.8 11.3 0.00 0.05 0.05 57 1009.8
20260507220654 16 198 3.2 9.7 0.00 0.05 0.05 57 1009.7
20260507215835 16 297 4.8 9.7 0.00 0.05 0.05 58 1009.7
20260507215337 16 270 6.4 16.1 0.00 0.05 0.05 58 1009.6
20260507214835 16 220 6.4 16.1 0.00 0.05 0.05 56 1009.4
20260507214331 16 299 4.8 9.7 0.00 0.05 0.05 57 1009.4
20260507213829 16 291 3.2 8.0 0.00 0.05 0.05 59 1009.5
20260507213329 16 348 4.8 14.5 0.00 0.05 0.05 58 1009.4
20260507212830 17 297 6.4 14.5 0.00 0.05 0.05 57 1009.3
20260507212328 17 283 8.0 17.7 0.00 0.05 0.05 57 1009.2
20260507211824 17 258 8.0 17.7 0.00 0.05 0.05 58 1009.3
20260507211316 16 268 8.0 16.1 0.00 0.05 0.05 59 1009.2
20260507210810 16 260 9.7 22.5 0.00 0.05 0.05 58 1009.2
20260507210305 16 270 8.0 22.5 0.00 0.05 0.05 59 1009.2
20260507205806 16 274 6.4 19.3 0.00 0.05 0.05 59 1009.2
20260507205307 17 272 8.0 12.9 0.00 0.05 0.05 58 1009.1
20260507204805 17 315 6.4 11.3 0.00 0.05 0.05 59 1009.0
20260507204306 16 268 6.4 11.3 0.00 0.05 0.05 60 1009.0
20260507203802 17 295 6.4 14.5 0.00 0.05 0.05 60 1008.9
20260507203501 17 267 4.8 11.3 0.00 0.05 0.05 61 1008.9
20260507203423 17 285 6.4 14.5 0.00 0.05 0.05 59 1008.9
20260507202604 17 205 4.8 11.3 0.00 0.05 0.05 62 1008.8
20260507201803 17 303 3.2 9.7 0.00 0.05 0.05 68 1008.9
20260507201303 17 282 3.2 6.4 0.00 0.05 0.05 69 1008.9
20260507200812 17 310 3.2 6.4 0.00 0.05 0.05 70 1009.1
20260507200305 16 355 3.2 6.4 0.00 0.05 0.05 71 1009.2
20260507195803 16 263 3.2 6.4 0.00 0.05 0.05 71 1009.1
20260507195654 16 285 3.2 6.4 0.00 0.05 0.05 73 1009.2
20260507194804 15 304 3.2 6.4 0.00 0.05 0.05 73 1009.4
20260507194305 15 293 3.2 11.3 0.00 0.05 0.05 74 1009.6
20260507193806 16 315 4.8 11.3 0.00 0.05 0.05 74 1009.8
20260507193309 15 289 3.2 11.3 0.00 0.05 0.05 76 1009.8
20260507192804 15 295 0.0 6.4 0.00 0.05 0.05 75 1009.9
20260507192306 15 295 0.0 3.2 0.03 0.05 0.05 78 1010.0
20260507191802 15 284 1.6 4.8 0.03 0.05 0.05 78 1010.1
20260507191302 15 284 3.2 9.7 0.03 0.05 0.05 80 1010.2
20260507190802 15 296 3.2 9.7 0.03 0.05 0.05 78 1010.2
20260507190303 14 289 3.2 6.4 0.03 0.05 0.05 77 1010.2
20260507185801 14 278 1.6 6.4 0.03 0.05 0.05 81 1010.1
20260507185305 14 247 0.0 6.4 0.03 0.05 0.05 79 1010.3
20260507184801 14 245 0.0 1.6 0.05 0.05 0.05 82 1010.5
20260507184302 13 245 0.0 3.2 0.05 0.05 0.05 81 1010.6
20260507183803 13 245 1.6 3.2 0.05 0.05 0.05 83 1010.5
20260507183619 13 245 1.6 3.2 0.05 0.05 0.05 82 1010.6
20260507182803 13 231 0.0 3.2 0.05 0.05 0.05 78 1010.7
20260507182301 13 231 0.0 1.6 0.03 0.03 0.03 76 1010.6
20260507181802 13 231 1.6 3.2 0.03 0.03 0.03 75 1010.6
20260507181301 13 231 0.0 3.2 0.03 0.03 0.03 78 1010.6
20260507180802 13 231 0.0 3.2 0.03 0.03 0.03 79 1010.7
20260507180622 13 228 0.0 1.6 0.03 0.03 0.03 79 1010.8
20260507180138 13 228 0.0 1.6 0.03 0.03 0.03 80 1010.9
20260507175306 13 228 0.0 1.6 0.03 0.03 0.03 78 1010.7
20260507174800 13 228 0.0 3.2 0.00 0.00 0.00 78 1010.8
20260507174301 13 229 1.6 3.2 0.00 0.00 0.00 76 1010.9
20260507173801 13 229 1.6 4.8 0.00 0.00 0.00 76 1010.8
20260507173304 13 228 0.0 4.8 0.00 0.00 0.00 75 1010.8
20260507172800 13 156 0.0 3.2 0.00 0.00 0.00 76 1010.9
20260507172308 13 156 0.0 3.2 0.00 0.00 0.00 75 1010.9
20260507171801 13 98 0.0 3.2 0.00 0.00 0.00 77 1010.8
20260507171300 13 274 1.6 4.8 0.00 0.00 0.00 76 1011.3
20260507170800 13 274 3.2 6.4 0.00 0.00 0.00 75 1011.2
20260507170658 13 273 1.6 6.4 0.00 0.00 0.00 75 1011.2
20260507165803 13 217 1.6 6.4 0.00 0.00 0.00 76 1011.3
20260507165301 13 235 0.0 4.8 0.00 0.00 0.00 78 1011.3
20260507164801 13 232 0.0 4.8 0.00 0.00 0.00 77 1011.4
20260507164301 13 65 0.0 3.2 0.00 0.00 0.00 77 1011.4
20260507163802 13 261 0.0 3.2 0.00 0.00 0.00 78 1011.2
20260507163308 13 262 0.0 3.2 0.00 0.00 0.00 79 1011.2
20260507162802 13 262 0.0 3.2 0.00 0.00 0.00 81 1011.3
20260507162307 13 262 1.6 3.2 0.00 0.00 0.00 79 1011.3
20260507161806 13 262 1.6 4.8 0.00 0.00 0.00 80 1011.5
20260507161306 13 262 1.6 4.8 0.00 0.00 0.00 80 1011.5
20260507160803 13 252 1.6 3.2 0.00 0.00 0.00 79 1011.5
20260507160302 13 252 0.0 1.6 0.00 0.00 0.00 80 1011.5
20260507155804 13 252 0.0 1.6 0.00 0.00 0.00 78 1011.5
20260507155301 13 252 0.0 3.2 0.00 0.00 0.00 78 1011.5
20260507154804 13 252 0.0 3.2 0.00 0.00 0.00 77 1011.7
20260507154300 13 251 0.0 3.2 0.00 0.00 0.00 78 1011.7
20260507153801 13 251 1.6 3.2 0.00 0.00 0.00 79 1011.8
20260507153302 13 251 1.6 3.2 0.00 0.00 0.00 78 1011.8
20260507152804 13 251 1.6 3.2 0.00 0.00 0.00 77 1011.7
20260507152305 13 250 0.0 3.2 0.00 0.00 0.00 78 1011.6
20260507151806 13 262 0.0 3.2 0.00 0.00 0.00 79 1011.6
20260507151301 13 262 1.6 4.8 0.00 0.00 0.00 78 1011.6
20260507150804 13 262 1.6 6.4 0.00 0.00 0.00 78 1011.6
20260507150301 13 219 3.2 12.9 0.00 0.00 0.00 77 1011.6
20260507145801 13 43 1.6 12.9 0.00 0.00 0.00 78 1011.6
20260507145301 13 268 3.2 6.4 0.00 0.00 0.00 78 1011.8
20260507144802 13 272 3.2 4.8 0.00 0.00 0.00 80 1011.6
20260507144644 13 272 1.6 4.8 0.00 0.00 0.00 79 1011.5
20260507143801 14 272 0.0 3.2 0.00 0.03 0.00 79 1011.4
20260507143302 13 286 0.0 3.2 0.00 0.03 0.00 79 1011.4
20260507142806 13 287 1.6 3.2 0.00 0.03 0.00 79 1011.3
20260507142301 13 272 1.6 4.8 0.00 0.03 0.00 78 1011.4
20260507141805 13 272 1.6 4.8 0.00 0.03 0.00 78 1011.3
20260507141301 13 266 1.6 4.8 0.00 0.03 0.00 78 1011.3
20260507140802 13 75 1.6 4.8 0.00 0.03 0.00 78 1011.2
20260507140301 13 274 3.2 16.1 0.00 0.03 0.00 78 1011.3
20260507135804 13 276 3.2 16.1 0.00 0.03 0.00 78 1011.3
20260507135305 13 214 1.6 4.8 0.00 0.03 0.00 77 1011.5
20260507134802 14 5 1.6 11.3 0.00 0.03 0.00 78 1011.7
20260507134302 13 241 3.2 11.3 0.00 0.03 0.00 78 1011.7
20260507133801 13 162 3.2 14.5 0.00 0.03 0.00 77 1011.5
20260507133303 13 109 3.2 14.5 0.00 0.03 0.00 77 1011.7
20260507132801 14 270 3.2 8.0 0.00 0.03 0.00 77 1011.9
20260507132302 14 231 1.6 8.0 0.00 0.03 0.00 77 1011.7
20260507131804 14 230 1.6 4.8 0.00 0.03 0.00 76 1011.7
20260507131301 14 260 1.6 4.8 0.00 0.03 0.00 77 1011.7
20260507131110 14 209 3.2 9.7 0.00 0.03 0.00 76 1011.7
20260507130306 14 231 3.2 9.7 0.00 0.03 0.00 76 1011.6
20260507125805 14 272 1.6 6.4 0.00 0.03 0.00 76 1011.7
20260507125259 14 262 0.0 3.2 0.00 0.03 0.00 77 1011.7
20260507125037 14 262 1.6 4.8 0.00 0.03 0.00 76 1011.7
20260507124250 14 262 1.6 8.0 0.00 0.03 0.00 76 1011.7
20260507123752 14 244 1.6 9.7 0.00 0.03 0.00 76 1011.6
20260507123248 14 224 1.6 9.7 0.00 0.03 0.00 78 1011.5
20260507122750 14 310 1.6 3.2 0.00 0.03 0.00 80 1011.5
20260507122609 14 258 0.0 3.2 0.00 0.03 0.00 79 1011.5
20260507121747 14 258 1.6 8.0 0.00 0.03 0.00 79 1011.5
20260507121248 14 258 3.2 8.0 0.00 0.03 0.00 79 1011.4
20260507120745 14 256 3.2 9.7 0.00 0.03 0.00 78 1011.6
20260507120248 14 179 3.2 9.7 0.00 0.05 0.00 78 1011.6
20260507120047 14 243 3.2 8.0 0.00 0.05 0.00 79 1011.5
20260507115246 14 160 3.2 8.0 0.00 0.05 0.00 78 1011.6
20260507114742 14 243 3.2 6.4 0.00 0.05 0.00 79 1011.2
20260507114241 14 170 1.6 8.0 0.00 0.05 0.00 79 1011.4
20260507114112 14 168 1.6 8.0 0.00 0.05 0.00 79 1011.5
20260507113242 14 267 1.6 4.8 0.00 0.08 0.00 80 1011.4
20260507112741 14 267 1.6 4.8 0.00 0.08 0.00 79 1011.5
20260507112235 14 243 1.6 3.2 0.00 0.08 0.00 80 1011.2
20260507111737 14 249 0.0 3.2 0.00 0.08 0.00 80 1011.3
20260507111538 14 153 0.0 3.2 0.00 0.15 0.00 80 1011.2
20260507110730 14 179 1.6 6.4 0.00 0.20 0.00 80 1011.3
20260507110537 14 212 1.6 8.0 0.00 0.23 0.00 78 1011.2
20260507105729 14 181 1.6 8.0 0.00 0.23 0.00 78 1010.9
20260507105230 14 184 1.6 4.8 0.00 0.23 0.00 80 1011.2
20260507104731 14 185 1.6 4.8 0.00 0.23 0.00 79 1011.2
20260507104229 14 266 0.0 4.8 0.00 0.23 0.00 79 1010.8
20260507103728 15 266 0.0 4.8 0.00 0.23 0.00 79 1010.8
20260507103230 14 266 3.2 6.4 0.00 0.23 0.00 78 1010.7
20260507102727 14 266 1.6 6.4 0.00 0.23 0.00 79 1010.8
20260507102538 14 187 0.0 3.2 0.00 0.23 0.00 80 1010.7
20260507101727 15 159 0.0 4.8 0.00 0.23 0.00 79 1010.6
20260507101225 15 159 1.6 4.8 0.00 0.23 0.00 78 1010.5
20260507100725 15 150 1.6 3.2 0.00 0.23 0.00 79 1010.6
20260507100232 15 156 0.0 3.2 0.00 0.23 0.00 78 1010.7
20260507095724 15 237 0.0 3.2 0.00 0.23 0.00 79 1010.9
20260507095229 15 237 1.6 4.8 0.00 0.23 0.00 78 1010.8
20260507094727 15 236 1.6 4.8 0.00 0.23 0.00 78 1010.9
20260507094220 15 170 1.6 4.8 0.00 0.23 0.00 79 1010.9
20260507093713 15 167 1.6 6.4 0.00 0.23 0.00 78 1010.8
20260507093213 15 169 1.6 6.4 0.00 0.23 0.00 79 1010.7
20260507092714 15 187 0.0 4.8 0.00 0.23 0.00 77 1010.7
20260507092214 15 108 1.6 4.8 0.00 0.23 0.00 77 1010.8
20260507091711 15 138 1.6 4.8 0.00 0.23 0.00 77 1010.7
20260507091211 15 102 0.0 3.2 0.00 0.23 0.00 79 1010.9
20260507090711 15 48 0.0 1.6 0.00 0.23 0.00 77 1010.4
20260507090209 15 47 1.6 4.8 0.00 0.23 0.00 78 1010.3
20260507085709 15 47 1.6 4.8 0.00 0.23 0.00 78 1010.3
20260507085549 15 108 1.6 4.8 0.00 0.23 0.00 77 1010.1
20260507084700 15 205 1.6 4.8 0.00 0.23 0.00 76 1010.3
20260507084201 15 226 3.2 12.9 0.00 0.23 0.00 76 1010.4
20260507084102 15 168 3.2 12.9 0.00 0.23 0.00 76 1010.3
20260507083205 16 230 3.2 9.7 0.00 0.23 0.00 76 1010.5
20260507082701 16 288 4.8 12.9 0.00 0.23 0.00 77 1010.9
20260507082202 16 273 3.2 12.9 0.00 0.23 0.00 77 1010.8
20260507082019 16 297 3.2 8.0 0.00 0.23 0.00 77 1010.6
20260507081155 16 89 3.2 8.0 0.00 0.23 0.00 77 1010.9
20260507080646 16 51 1.6 8.0 0.00 0.23 0.00 77 1010.7
20260507080149 16 181 3.2 8.0 0.00 0.23 0.00 78 1010.5
20260507075645 16 222 1.6 6.4 0.00 0.23 0.00 76 1010.5
20260507075143 16 146 1.6 4.8 0.00 0.23 0.00 77 1010.3
20260507075024 16 150 4.8 20.9 0.00 0.23 0.00 76 1010.4
20260507074139 16 91 8.0 20.9 0.00 0.23 0.00 76 1010.3
20260507073638 16 263 4.8 16.1 0.00 0.23 0.00 76 1010.6
20260507073138 16 261 1.6 9.7 0.00 0.23 0.00 78 1010.7
20260507072637 16 281 1.6 9.7 0.00 0.23 0.00 77 1010.7
20260507072136 16 281 4.8 9.7 0.00 0.23 0.00 77 1010.2
20260507071637 16 324 6.4 11.3 0.00 0.23 0.00 77 1010.4
20260507071137 16 260 3.2 11.3 0.00 0.23 0.00 78 1010.5
20260507070632 16 262 1.6 8.0 0.00 0.23 0.00 78 1010.1
20260507070359 16 309 1.6 6.4 0.00 0.23 0.00 79 1010.1
20260507065629 16 312 1.6 6.4 0.00 0.23 0.00 80 1010.4
20260507065131 17 15 1.6 6.4 0.00 0.23 0.00 80 1010.3
20260507064630 17 289 4.8 11.3 0.00 0.23 0.00 78 1010.5
20260507064129 17 302 6.4 11.3 0.00 0.23 0.00 78 1010.4
20260507063632 17 281 6.4 8.0 0.00 0.23 0.00 78 1010.3